Location: Julian California
(33.0790°N, 116.6010°W)
Time: 06:17:15
(UTC-07:00)

CZ-4B DEB - Pass Details

Date: 19 May 2017
Orbit: 380 x 384 km, 97.4° (Epoch: 28 May)

Event Time Altitude Azimuth Distance (km) Brightness Sun altitude
Exits shadow 20:40:41 20° 126° (SE) 962 3.9 -11.5°
Maximum altitude 20:42:13 32° 75° (ENE) 674 3.4 -11.8°
Drops below altitude 10° 20:44:55 10° 9° (N) 1,399 5.7 -12.3°
Sets 20:46:59 0° 360° (N) 2,255 7.0 -12.6°
